Weather reports worldwide

Advertisment
Kempten, Germany (10946): temperature & dewpoint: 06.12.2018 00:00:00 - 12.12.2018 00:00:00 (CET)Kempten, Germany (10946): temperature 5cm & temperature -5cm: 06.12.2018 00:00:00 - 12.12.2018 00:00:00 (CET)Kempten, Germany (10946): temperature -20cm & temperature -100cm: 06.12.2018 00:00:00 - 12.12.2018 00:00:00 (CET)Kempten, Germany (10946): wind speed & gusts: 06.12.2018 00:00:00 - 12.12.2018 00:00:00 (CET)Kempten, Germany (10946): wind direction: 06.12.2018 00:00:00 - 12.12.2018 00:00:00 (CET)Kempten, Germany (10946): reduced air pressure: 06.12.2018 00:00:00 - 12.12.2018 00:00:00 (CET)Kempten, Germany (10946): visibility: 06.12.2018 00:00:00 - 12.12.2018 00:00:00 (CET)Kempten, Germany (10946): sunshine duration: 06.12.2018 00:00:00 - 12.12.2018 00:00:00 (CET)Kempten, Germany (10946): precipitation: 06.12.2018 00:00:00 - 12.12.2018 00:00:00 (CET)
Date & Time tt [°C] td [°C] tt 5cm [°C] tt -5cm [°C] tt -20cm [°C] tt -100cm [°C] ff [km/h] ff [kn] fx [km/h] fx [kn] dd ppp [hPa] vv [km] sd [min] rr [mm]
12.12.2018 00:00:00 -2,7 -4,2 -4,2 0,5 2,7 8,3 5 3 8 4 ESE 1025,6 16 0 0,0
11.12.2018 23:00:00 -1,8 -3,3 -3,1 0,6 2,8 8,3 4 2 12 7 SE 1025,4 13 0 0,0
11.12.2018 22:00:00 -0,7 -3,0 -1,7 0,7 2,9 8,3 7 4 13 7 SSW 1025,0 19 0 0,0
11.12.2018 21:00:00 -0,6 -2,9 -1,7 0,7 3,0 8,3 3 2 13 7 SW 1025,4 17 0 0,0
11.12.2018 20:00:00 -0,2 -2,8 -1,4 0,8 3,1 8,3 5 3 11 6 SSW 1025,5 19 0 0,0
11.12.2018 19:00:00 0,2 -2,7 -0,8 1,0 3,2 8,3 4 2 11 6 S 1025,4 18 0 0,0
11.12.2018 18:00:00 0,4 -3,2 -0,6 1,2 3,3 8,3 4 2 15 8 SW 1025,1 33 0 0,0
11.12.2018 17:00:00 0,5 -2,9 -0,5 1,8 3,3 8,3 5 3 15 8 S 1024,7 36 0 0,0
11.12.2018 16:00:00 1,1 -3,2 0,6 2,6 3,2 8,3 9 5 18 10 W 1024,5 34 0 0,0
11.12.2018 15:00:00 1,4 -3,4 1,6 3,3 3,1 8,4 8 5 19 10 W 1024,3 42 14 0,0
11.12.2018 14:00:00 1,0 -3,6 1,1 2,9 2,9 8,4 10 5 27 14 SW 1024,5 42 0 0,0
11.12.2018 13:00:00 0,8 -2,9 0,8 2,1 2,8 8,4 6 3 16 9 SSW 1025,1 30 0 0,0
11.12.2018 12:00:00 0,3 -3,3 -0,1 1,6 2,8 8,4 6 3 19 11 SSW 1025,8 19 0 0,0
11.12.2018 11:00:00 0,5 -3,4 -0,2 1,3 2,8 8,4 9 5 30 16 WSW 1025,8 30 1 0,0
11.12.2018 10:00:00 -0,4 -3,4 -0,9 1,0 2,8 8,4 13 7 25 13 WSW 1026,0 9 0 0,0
11.12.2018 09:00:00 -0,3 -3,6 -1,2 0,9 2,8 8,4 11 6 26 14 SW 1026,0 28 0 0,1
11.12.2018 08:00:00 -0,3 -2,8 -1,1 0,9 2,9 8,4 9 5 19 10 SW 1025,6 22 0 0,0
11.12.2018 07:00:00 -0,4 -3,0 -1,2 1,0 2,9 8,4 8 4 16 9 WSW 1025,7 6 0 0,1
11.12.2018 06:00:00 -0,3 -2,6 -1,4 1,0 2,9 8,4 7 4 14 7 W 1025,6 27 0 0,0
11.12.2018 05:00:00 -0,6 -2,3 -1,3 1,0 3,0 8,4 4 2 11 6 SW 1025,5 22 0 0,0
11.12.2018 04:00:00 -0,7 -2,5 -1,3 1,0 3,0 8,4 5 3 11 6 WSW 1025,4 34 0 0,0
11.12.2018 03:00:00 -1,3 -2,7 -4,9 0,9 3,0 8,4 3 1 11 6 WSW 1025,5 28 0 0,0
11.12.2018 02:00:00 -0,5 -1,4 -2,3 1,0 3,1 8,4 2 1 12 6 WSW 1024,8 19 0 0,0
11.12.2018 01:00:00 -0,3 -1,3 -1,0 1,0 3,2 8,4 8 5 19 10 NW 1024,9 26 0 0,2
11.12.2018 00:00:00 -0,3 -0,8 -0,2 0,9 3,2 8,4 13 7 34 18 WNW 1024,8 0,9 0 0,8
10.12.2018 23:00:00 1,6 -1,5 0,4 1,2 3,3 8,4 16 9 30 16 W 1023,6 6 0 0,0
10.12.2018 22:00:00 1,4 -1,2 0,4 1,1 3,3 8,4 14 7 32 17 W 1023,9 27 0 0,0
10.12.2018 21:00:00 1,8 -2,1 0,4 0,9 3,4 8,4 15 8 32 18 W 1023,7 45 0 0,0
10.12.2018 20:00:00 1,8 -1,4 0,5 1,4 3,5 8,5 15 8 41 22 W 1023,9 45 0 0,0
10.12.2018 19:00:00 1,6 -1,3 0,2 1,3 3,6 8,5 13 7 34 18 W 1023,6 53 0 0,1
10.12.2018 18:00:00 0,8 -0,2 0,2 1,5 3,7 8,5 4 2 24 13 WSW 1023,6 4,2 0 0,3
10.12.2018 17:00:00 1,6 -1,0 0,6 1,4 3,8 8,5 9 5 24 13 SW 1023,8 27 0 0,0
10.12.2018 16:00:00 1,9 -1,3 0,4 2,1 3,8 8,5 10 5 26 14 SW 1023,8 48 13 0,0
10.12.2018 15:00:00 2,2 -0,5 1,7 2,4 3,8 8,5 6 4 24 13 WSW 1023,9 42 4 0,2
10.12.2018 14:00:00 2,3 -0,9 1,8 2,8 3,8 8,5 7 4 35 19 W 1024,0 50 0 0,0
10.12.2018 13:00:00 0,7 -0,3 0,1 1,9 3,8 8,5 4 2 24 13 WNW 1024,7 2,8 0 1,0
10.12.2018 12:00:00 2,7 -1,6 2,8 3,1 3,8 8,5 13 7 41 22 W 1024,1 43 0 0,0
10.12.2018 11:00:00 2,4 -0,9 2,4 2,4 3,7 8,5 15 8 33 18 W 1024,2 51 0 0,0
10.12.2018 10:00:00 2,3 -1,6 2,0 1,7 3,8 8,5 16 9 40 22 W 1023,7 47 0 0,0
10.12.2018 09:00:00 2,4 -1,8 1,6 1,5 3,9 8,5 13 7 41 22 W 1022,6 54 0 0,0
10.12.2018 08:00:00 2,9 -1,6 1,8 1,5 4,0 8,5 18 10 38 21 W 1021,8 42 0 0,0
10.12.2018 07:00:00 2,8 -1,0 1,8 1,8 4,1 8,5 16 8 37 20 WSW 1021,5 59 0 0,0
10.12.2018 06:00:00 2,8 -1,0 1,7 2,0 4,2 8,5 14 8 37 20 WSW 1021,4 57 0 0,0
10.12.2018 05:00:00 2,9 -1,1 1,2 2,2 4,3 8,5 16 9 42 23 W 1021,0 55 0 0,0
10.12.2018 04:00:00 3,1 0,1 2,0 2,6 4,4 8,5 17 9 39 21 W 1020,3 53 0 0,3
10.12.2018 03:00:00 2,4 0,7 1,8 2,6 4,4 8,5 12 6 33 18 W 1019,9 7 0 0,2
10.12.2018 02:00:00 3,6 0,8 2,5 2,7 4,5 8,5 13 7 34 18 W 1018,8 26 0 0,0
10.12.2018 01:00:00 3,8 0,8 2,5 2,6 4,6 8,5 12 7 29 16 WSW 1017,6 55 0 0,0
10.12.2018 00:00:00 4,0 1,2 2,2 2,9 4,7 8,5 13 7 39 21 WNW 1016,6 63 0 0,0
09.12.2018 23:00:00 4,2 2,1 3,0 3,5 4,7 8,5 11 6 30 16 W 1015,3 41 0 0,4
09.12.2018 22:00:00 4,3 2,5 3,5 3,7 4,8 8,5 16 9 40 21 W 1014,4 5 0 0,2
09.12.2018 21:00:00 4,4 2,4 3,5 3,6 4,8 8,5 18 10 40 22 W 1013,5 25 0 0,5
09.12.2018 20:00:00 4,3 2,2 3,3 3,5 4,9 8,5 22 12 46 25 WSW 1012,2 27 0 0,6
09.12.2018 19:00:00 3,6 2,1 2,9 3,6 4,9 8,5 16 9 46 25 WSW 1010,9 5 0 0,4
09.12.2018 18:00:00 3,6 1,9 2,7 3,4 5,0 8,5 16 9 43 23 WSW 1010,3 9 0 0,7
09.12.2018 17:00:00 3,2 1,8 2,6 3,7 5,1 8,5 14 8 47 25 WSW 1009,6 4,0 0 2,0
09.12.2018 16:00:00 3,6 2,0 3,0 4,0 5,2 8,5 16 9 33 18 SW 1009,4 5 0 1,2
09.12.2018 15:00:00 2,6 1,5 2,5 4,1 5,3 8,5 12 7 34 18 WSW 1009,9 4,1 0 3,3
09.12.2018 14:00:00 3,8 1,9 3,3 5,1 5,2 8,5 17 9 41 22 WSW 1008,7 5 0 1,1
09.12.2018 13:00:00 4,9 1,3 4,1 5,8 5,1 8,5 21 11 47 26 WSW 1008,7 7 1 0,0
09.12.2018 12:00:00 5,1 1,3 4,7 5,1 5,0 8,5 18 10 61 33 WSW 1009,2 39 0 0,0
09.12.2018 11:00:00 4,5 2,2 3,9 4,6 5,0 8,5 21 11 57 31 WSW 1010,2 36 0 1,0
09.12.2018 10:00:00 3,7 2,0 3,1 3,9 5,0 8,5 19 11 55 30 WSW 1009,5 9 0 1,1
09.12.2018 09:00:00 4,5 2,4 3,5 3,9 5,1 8,5 23 13 48 26 WSW 1007,9 9 0 0,1
09.12.2018 08:00:00 4,0 2,0 3,0 3,7 5,2 8,5 18 10 61 33 W 1007,4 38 0 3,5
09.12.2018 07:00:00 5,4 3,6 4,4 4,7 5,1 8,5 20 11 53 28 W 1006,1 2,4 0 1,9
09.12.2018 06:00:00 6,9 3,4 5,8 4,8 5,1 8,4 28 15 80 43 WSW 1005,3 54 0 2,5
09.12.2018 05:00:00 5,9 4,7 5,2 4,9 5,0 8,5 16 9 54 29 W 1005,3 1,4 0 3,9
09.12.2018 04:00:00 6,4 4,0 5,0 4,7 5,0 8,6 15 8 53 29 WSW 1005,3 3,8 0 1,7
09.12.2018 03:00:00 6,4 4,1 5,0 4,6 4,9 8,6 22 12 51 27 WSW 1006,3 3,0 0 1,9
09.12.2018 02:00:00 7,6 2,7 6,1 4,0 4,9 8,6 23 12 62 34 WSW 1006,2 70 0 0,2
09.12.2018 01:00:00 5,3 3,1 4,2 4,0 4,9 8,6 16 9 42 23 SW 1009,0 10 0 1,0
09.12.2018 00:00:00 4,9 2,8 3,9 3,7 4,9 8,6 14 8 47 26 SSW 1010,4 8 0 0,3
08.12.2018 23:00:00 4,5 2,6 3,5 3,5 4,9 8,6 14 8 40 22 SW 1011,9 10 0 0,4
08.12.2018 22:00:00 4,4 1,0 2,9 3,4 5,0 8,6 19 10 41 22 SW 1013,3 8 0 0,2
08.12.2018 21:00:00 6,0 -0,6 4,9 3,4 5,0 8,6 18 10 45 24 SW 1013,8 65 0 0,0
08.12.2018 20:00:00 5,9 -0,3 4,4 3,4 5,1 8,6 18 10 45 24 SW 1014,5 63 0 0,1
08.12.2018 19:00:00 5,5 0,1 3,3 3,6 5,1 8,6 16 8 36 19 SW 1015,2 49 0 0,0
08.12.2018 18:00:00 4,6 0,8 3,0 3,6 5,2 8,6 14 8 39 21 SW 1016,2 40 0 0,1
08.12.2018 17:00:00 4,0 1,0 2,8 3,9 5,2 8,6 15 8 34 19 SW 1016,6 14 0 0,1
08.12.2018 16:00:00 4,4 0,3 2,9 4,3 5,2 8,6 16 8 39 21 SW 1016,4 14 0 0,4
08.12.2018 15:00:00 4,4 0,7 4,0 5,0 5,1 8,6 14 8 49 26 SW 1016,4 30 2 0,1
08.12.2018 14:00:00 5,4 -1,0 5,1 4,8 4,9 8,6 16 8 55 30 SW 1016,1 30 1 0,0
08.12.2018 13:00:00 5,7 -1,6 5,6 4,9 4,8 8,6 18 10 56 31 SW 1016,0 41 30 0,0
08.12.2018 12:00:00 5,3 -1,9 6,2 4,2 4,7 8,6 22 12 53 28 SW 1016,5 28 20 0,0
08.12.2018 11:00:00 4,8 -2,0 4,9 3,2 4,7 8,6 20 11 48 26 WSW 1016,8 26 30 0,0
08.12.2018 10:00:00 4,1 -2,0 4,1 1,8 4,8 8,6 15 8 40 22 SW 1017,6 40 15 0,0
08.12.2018 09:00:00 3,5 -1,8 2,0 1,3 5,0 8,5 13 7 45 24 SW 1018,2 66 5 0,0
08.12.2018 08:00:00 3,3 -1,7 1,3 1,4 5,2 8,5 16 9 41 22 SW 1017,6 66 0 0,0
08.12.2018 07:00:00 3,5 -1,4 1,2 2,0 5,5 8,5 16 9 42 23 WSW 1017,3 70 0 0,0
08.12.2018 06:00:00 3,1 -1,2 0,9 2,2 5,7 8,5 13 7 41 22 WSW 1017,5 62 0 0,0
08.12.2018 05:00:00 2,7 -0,7 1,4 2,4 6,0 8,5 17 9 49 26 SW 1017,6 63 0 0,0
08.12.2018 04:00:00 2,9 -0,1 1,4 3,1 6,2 8,4 24 13 48 26 WSW 1017,3 68 0 0,0
08.12.2018 03:00:00 1,9 0,9 1,4 3,3 6,5 8,3 10 6 46 25 WSW 1017,9 70 0 4,0
08.12.2018 02:00:00 3,0 1,8 2,5 4,7 6,7 8,5 19 11 42 23 W 1016,6 1,2 0 2,3
08.12.2018 01:00:00 4,0 2,2 3,3 5,3 6,8 8,6 14 7 45 24 W 1014,6 4,8 0 2,5
08.12.2018 00:00:00 5,7 3,7 4,7 5,8 6,9 8,6 15 8 63 34 SW 1011,7 7 0 2,8
07.12.2018 23:00:00 8,2 5,2 6,5 6,4 7,0 8,6 14 8 34 19 SW 1008,9 16 0 0,3
07.12.2018 22:00:00 7,8 5,4 6,5 6,4 7,0 8,6 14 8 43 23 SW 1010,2 12 0 1,1
07.12.2018 21:00:00 9,0 4,6 7,5 6,1 7,1 8,6 16 9 56 31 WSW 1010,2 26 0 0,0
07.12.2018 20:00:00 8,5 4,5 7,3 5,8 7,3 8,6 13 7 31 17 SW 1010,3 45 0 0,0
07.12.2018 19:00:00 8,0 4,6 5,9 5,5 7,5 8,6 7 4 18 10 SW 1009,7 45 0 0,0
07.12.2018 18:00:00 6,8 4,4 3,9 6,1 7,8 8,6 3 2 18 10 SSW 1010,1 44 0 0,0
07.12.2018 17:00:00 8,5 5,1 6,4 7,4 7,8 8,6 10 5 18 10 SSW 1010,3 49 8 0,0
07.12.2018 16:00:00 9,8 5,3 9,4 9,2 7,7 8,6 9 5 31 17 WSW 1011,5 46 27 0,0
07.12.2018 15:00:00 11,7 4,9 12,1 9,7 7,6 8,5 5 3 19 10 WSW 1011,8 53 17 0,0
07.12.2018 14:00:00 11,3 3,7 11,3 10,1 7,3 8,5 8 5 18 10 WSW 1012,3 51 9 0,0
07.12.2018 13:00:00 10,8 4,8 11,0 9,9 7,0 8,5 7 4 31 17 W 1013,9 62 15 0,0
07.12.2018 12:00:00 10,4 4,5 10,2 8,8 6,8 8,5 15 8 35 19 WSW 1016,0 65 2 0,0
07.12.2018 11:00:00 10,2 4,7 10,0 8,0 6,6 8,5 9 5 23 12 W 1017,2 70 3 0,0
07.12.2018 10:00:00 9,7 5,0 9,0 7,1 6,6 8,5 8 4 23 12 SSW 1017,9 70 0 0,0
07.12.2018 09:00:00 9,6 5,0 8,5 6,6 6,5 8,5 7 4 24 13 SW 1019,0 63 0 0,0
07.12.2018 08:00:00 9,7 4,8 8,3 6,4 6,5 8,5 6 3 26 14 SW 1019,5 70 0 0,0
07.12.2018 07:00:00 9,7 4,7 8,5 6,3 6,5 8,5 10 5 20 11 SW 1019,7 70 0 0,0
07.12.2018 06:00:00 9,3 5,2 7,5 6,3 6,5 8,5 5 3 18 10 SW 1020,1 70 0 0,0
07.12.2018 05:00:00 9,8 4,7 8,7 6,5 6,5 8,5 11 6 28 15 SSW 1020,7 70 0 0,0
07.12.2018 04:00:00 9,7 4,8 8,5 6,3 6,4 8,5 13 7 24 13 SSW 1021,2 70 0 0,0
07.12.2018 03:00:00 9,5 4,8 8,4 6,2 6,4 8,5 13 7 26 14 SSW 1022,0 70 0 0,0
07.12.2018 02:00:00 8,7 5,0 7,3 5,9 6,5 8,5 5 3 16 9 S 1022,6 65 0 0,0
07.12.2018 01:00:00 8,3 5,0 7,0 5,8 6,5 8,5 8 4 18 10 SSW 1023,0 63 0 0,0
07.12.2018 00:00:00 7,9 5,3 6,6 5,9 6,5 8,5 6 3 17 9 S 1023,3 58 0 0,0
06.12.2018 23:00:00 8,1 5,5 6,5 6,0 6,6 8,5 7 4 14 7 SSW 1023,3 50 0 0,0
06.12.2018 22:00:00 8,4 5,5 7,4 6,0 6,6 8,5 10 5 20 11 SSW 1023,6 49 0 0,0
06.12.2018 21:00:00 7,9 5,5 6,5 5,7 6,7 8,5 10 6 16 9 SSW 1024,0 36 0 0,0
06.12.2018 20:00:00 7,9 5,7 6,8 6,0 6,9 8,5 8 4 15 8 SSW 1024,2 46 0 0,0
06.12.2018 19:00:00 8,2 5,5 6,6 6,4 6,9 8,5 9 5 18 10 SSW 1023,9 50 0 0,0
06.12.2018 18:00:00 8,2 5,8 7,3 6,6 7,0 8,5 9 5 23 12 SSW 1023,5 49 0 0,0
06.12.2018 17:00:00 8,5 6,0 7,7 7,3 7,0 8,5 9 5 26 14 SW 1023,1 51 0 0,0
06.12.2018 16:00:00 8,3 6,4 7,6 7,9 6,9 8,5 10 6 30 16 WSW 1022,9 47 0 0,0
06.12.2018 15:00:00 8,5 6,4 8,1 8,3 6,7 8,5 8 4 23 13 WSW 1022,4 14 0 0,0
06.12.2018 14:00:00 9,1 5,8 8,9 8,4 6,5 8,5 12 6 29 16 WSW 1022,1 47 3 0,0
06.12.2018 13:00:00 8,8 6,5 8,7 7,9 6,3 8,5 10 6 26 14 SW 1022,1 59 0 0,0
06.12.2018 12:00:00 8,8 6,4 8,5 7,9 6,1 8,5 9 5 23 13 SW 1022,3 48 0 0,0
06.12.2018 11:00:00 8,3 6,3 7,9 7,2 5,9 8,5 8 5 23 12 WSW 1022,7 46 0 0,1
06.12.2018 10:00:00 7,9 6,2 7,1 6,5 5,8 8,5 11 6 24 13 SW 1021,8 30 0 0,0
06.12.2018 09:00:00 7,1 5,9 6,5 5,9 5,7 8,5 14 7 23 13 SSW 1021,2 13 0 0,1
06.12.2018 08:00:00 6,7 6,0 6,1 5,5 5,7 8,5 10 5 21 11 S 1021,1 6 0 1,1
06.12.2018 07:00:00 6,9 5,5 6,0 5,3 5,7 8,5 14 7 29 15 SSW 1020,7 12 0 0,5
06.12.2018 06:00:00 6,4 5,2 5,2 4,9 5,7 8,5 5 3 11 6 WSW 1020,1 51 0 0,0
06.12.2018 05:00:00 6,0 5,1 5,0 5,0 5,7 8,5 4 2 13 7 E 1019,4 41 0 0,0
06.12.2018 04:00:00 6,3 5,2 5,0 5,0 5,7 8,5 2 1 16 9 SW 1020,0 23 0 0,1
06.12.2018 03:00:00 6,2 5,1 5,4 5,1 5,6 8,5 6 4 13 7 SSE 1020,8 22 0 0,5
06.12.2018 02:00:00 5,6 4,5 5,0 4,9 5,6 8,5 3 1 14 8 NW 1021,3 14 0 0,0
06.12.2018 01:00:00 6,4 4,6 5,2 4,9 5,6 8,5 5 3 22 12 S 1019,8 41 0 0,0
06.12.2018 00:00:00 5,6 4,2 4,8 4,6 5,6 8,5 8 4 14 8 ESE 1020,4 24 0 0,0

tt = temperature
td = dewpoint
tt 5cm = temperature 5cm
tt -5cm = temperature -5cm
tt -20cm = temperature -20cm
tt -100cm = temperature -100cm
ff = wind speed
fx = gusts
dd = wind direction
ppp = reduced air pressure
vv = visibility
sd = sunshine duration
rr = precipitation

Next stations